When you browse on this site, cookies collect data to enhance your experience and personalize the content and advertising you see.
Visit our Privacy Policy to learn more. By continuing to use the site, you agree to this use of cookies and data.
  • In Romania
  • List of Countries
  • For 7 days
  • Water Temperature
  • Satellite Maps
  • Weather Map
  • Weather Widgets
  • user-avatar
    Login

    Hourly Weather Durulino

    Today, 25 March, Monday

    Time Temperature Precipitation Wind Pressure Humidity
    00:00 -2°C° 0 mm 2 mps 742 mmHg 86%
    01:00 -4°C° 0 mm 3 mps 742 mmHg 86%
    02:00 -4°C° 0 mm 3 mps 742 mmHg 85%
    03:00 -4°C° 0 mm 3 mps 742 mmHg 85%
    04:00 -4°C° 0 mm 3 mps 742 mmHg 85%
    05:00 -5°C° 0 mm 3 mps 741 mmHg 85%
    06:00 -4°C° 0 mm 3 mps 741 mmHg 82%
    07:00 -2°C° 0 mm 3 mps 741 mmHg 79%
    08:00 -1°C° 0 mm 3 mps 741 mmHg 76%
    09:00 +1°C° 0 mm 3 mps 741 mmHg 70%
    10:00 +2°C° 0 mm 3 mps 741 mmHg 65%
    11:00 +4°C° 0 mm 3 mps 741 mmHg 60%
    12:00 +4°C° 0 mm 4 mps 741 mmHg 59%
    13:00 +5°C° 0 mm 4 mps 740 mmHg 58%
    14:00 +5°C° 0 mm 4 mps 740 mmHg 58%
    15:00 +4°C° 0 mm 3 mps 740 mmHg 62%
    16:00 +5°C° 0 mm 2 mps 740 mmHg 66%
    17:00 +4°C° 0 mm 2 mps 740 mmHg 71%
    18:00 +2°C° 0 mm 2 mps 740 mmHg 74%
    19:00 +1°C° 0 mm 2 mps 740 mmHg 77%
    20:00 -1°C° 0 mm 2 mps 740 mmHg 80%
    21:00 -1°C° 0 mm 2 mps 739 mmHg 81%
    22:00 -1°C° 0 mm 2 mps 739 mmHg 82%
    23:00 -1°C° 0 mm 2 mps 739 mmHg 82%

    Tomorrow, 26 March, Tuesday

    Time Temperature Precipitation Wind Pressure Humidity
    00:00 -1°C° 0 mm 2 mps 739 mmHg 83%
    01:00 -2°C° 0 mm 2 mps 738 mmHg 84%
    02:00 -2°C° 0 mm 2 mps 738 mmHg 85%
    03:00 -2°C° 0 mm 2 mps 738 mmHg 85%
    04:00 -2°C° 0 mm 2 mps 737 mmHg 85%
    05:00 -2°C° 0 mm 2 mps 737 mmHg 85%
    06:00 -1°C° 0.1 mm 2 mps 737 mmHg 84%
    07:00 0°C° 0.1 mm 3 mps 737 mmHg 83%
    08:00 0°C° 0.1 mm 3 mps 737 mmHg 82%
    09:00 +1°C° 0.3 mm 3 mps 737 mmHg 80%
    10:00 +1°C° 0.3 mm 3 mps 737 mmHg 77%
    11:00 +2°C° 0.3 mm 3 mps 737 mmHg 75%
    12:00 +1°C° 0.2 mm 4 mps 737 mmHg 72%
    13:00 +1°C° 0.2 mm 4 mps 737 mmHg 69%
    14:00 +1°C° 0.2 mm 4 mps 737 mmHg 66%
    15:00 0°C° 0 mm 4 mps 738 mmHg 66%
    16:00 0°C° 0 mm 3 mps 738 mmHg 67%
    17:00 0°C° 0 mm 3 mps 738 mmHg 68%
    18:00 -2°C° 0 mm 3 mps 738 mmHg 72%
    19:00 -3°C° 0 mm 2 mps 739 mmHg 76%
    20:00 -4°C° 0 mm 2 mps 739 mmHg 80%
    21:00 -4°C° 0 mm 2 mps 739 mmHg 81%
    22:00 -4°C° 0 mm 2 mps 740 mmHg 81%
    23:00 -5°C° 0 mm 2 mps 740 mmHg 82%

    Day after tomorrow, 27 March, Wednesday

    Time Temperature Precipitation Wind Pressure Humidity
    00:00 -5°C° 0 mm 2 mps 740 mmHg 82%
    01:00 -5°C° 0 mm 3 mps 741 mmHg 81%
    02:00 -5°C° 0 mm 3 mps 741 mmHg 81%
    03:00 -5°C° 0 mm 3 mps 741 mmHg 81%
    04:00 -5°C° 0 mm 3 mps 742 mmHg 81%
    05:00 -4°C° 0 mm 4 mps 742 mmHg 82%
    06:00 -4°C° 0.1 mm 4 mps 742 mmHg 79%
    07:00 -3°C° 0.1 mm 4 mps 743 mmHg 76%
    08:00 -2°C° 0.1 mm 4 mps 743 mmHg 73%
    09:00 -2°C° 0.1 mm 5 mps 744 mmHg 69%
    10:00 -2°C° 0.1 mm 5 mps 744 mmHg 66%
    11:00 -1°C° 0.1 mm 5 mps 745 mmHg 62%
    12:00 -1°C° 0.1 mm 5 mps 745 mmHg 61%
    13:00 -2°C° 0.1 mm 6 mps 746 mmHg 59%
    14:00 -1°C° 0.1 mm 6 mps 746 mmHg 58%
    15:00 -1°C° 0 mm 5 mps 747 mmHg 60%
    16:00 -1°C° 0 mm 5 mps 748 mmHg 63%
    17:00 -2°C° 0 mm 5 mps 748 mmHg 65%
    18:00 -3°C° 0 mm 4 mps 749 mmHg 69%
    19:00 -3°C° 0 mm 4 mps 750 mmHg 74%
    20:00 -4°C° 0 mm 4 mps 750 mmHg 79%
    21:00 -4°C° 0 mm 3 mps 751 mmHg 80%
    22:00 -4°C° 0 mm 3 mps 751 mmHg 81%
    23:00 -4°C° 0 mm 3 mps 752 mmHg 81%

    28 March, Thursday

    Time Temperature Precipitation Wind Pressure Humidity
    00:00 -5°C° 0 mm 3 mps 753 mmHg 82%
    01:00 -5°C° 0 mm 3 mps 753 mmHg 83%
    02:00 -5°C° 0 mm 3 mps 754 mmHg 85%
    03:00 -6°C° 0 mm 3 mps 754 mmHg 85%
    04:00 -6°C° 0 mm 3 mps 755 mmHg 85%
    05:00 -6°C° 0 mm 3 mps 755 mmHg 85%
    06:00 -5°C° 0 mm 3 mps 756 mmHg 79%
    07:00 -4°C° 0 mm 3 mps 756 mmHg 73%
    08:00 -2°C° 0 mm 3 mps 756 mmHg 66%
    09:00 -1°C° 0 mm 3 mps 756 mmHg 61%
    10:00 0°C° 0 mm 3 mps 756 mmHg 55%
    11:00 +1°C° 0 mm 3 mps 757 mmHg 49%
    12:00 +2°C° 0 mm 3 mps 756 mmHg 47%
    13:00 +3°C° 0 mm 3 mps 756 mmHg 45%
    14:00 +3°C° 0 mm 3 mps 756 mmHg 43%
    15:00 +3°C° 0 mm 3 mps 755 mmHg 49%
    16:00 +2°C° 0 mm 3 mps 755 mmHg 54%
    17:00 +3°C° 0 mm 2 mps 755 mmHg 60%
    18:00 +2°C° 0 mm 2 mps 755 mmHg 66%
    19:00 +1°C° 0 mm 3 mps 754 mmHg 71%
    20:00 0°C° 0 mm 3 mps 754 mmHg 77%
    21:00 0°C° 0 mm 3 mps 754 mmHg 80%
    22:00 0°C° 0 mm 3 mps 754 mmHg 84%
    23:00 0°C° 0 mm 3 mps 753 mmHg 88%

    29 March, Friday

    Time Temperature Precipitation Wind Pressure Humidity
    00:00 0°C° 0 mm 3 mps 753 mmHg 87%
    01:00 -1°C° 0 mm 4 mps 753 mmHg 86%
    02:00 0°C° 0 mm 4 mps 752 mmHg 85%
    03:00 0°C° 0 mm 4 mps 752 mmHg 86%
    04:00 0°C° 0 mm 4 mps 752 mmHg 87%
    05:00 0°C° 0 mm 4 mps 752 mmHg 89%
    06:00 0°C° 0 mm 4 mps 752 mmHg 87%
    07:00 +1°C° 0 mm 4 mps 752 mmHg 85%
    08:00 +1°C° 0 mm 4 mps 752 mmHg 84%
    09:00 +3°C° 0 mm 4 mps 752 mmHg 80%
    10:00 +3°C° 0 mm 5 mps 752 mmHg 77%
    11:00 +5°C° 0 mm 5 mps 752 mmHg 74%
    12:00 +6°C° 0 mm 5 mps 752 mmHg 72%
    13:00 +7°C° 0 mm 5 mps 751 mmHg 70%
    14:00 +8°C° 0 mm 5 mps 751 mmHg 68%
    15:00 +8°C° 0 mm 4 mps 751 mmHg 72%
    16:00 +8°C° 0 mm 3 mps 751 mmHg 75%
    17:00 +8°C° 0 mm 3 mps 751 mmHg 79%
    18:00 +7°C° 0 mm 3 mps 751 mmHg 83%
    19:00 +5°C° 0 mm 2 mps 751 mmHg 87%
    20:00 +4°C° 0 mm 2 mps 751 mmHg 90%
    21:00 +4°C° 0 mm 2 mps 751 mmHg 91%
    22:00 +4°C° 0 mm 2 mps 751 mmHg 91%
    23:00 +3°C° 0 mm 2 mps 750 mmHg 91%

    30 March, Saturday

    Time Temperature Precipitation Wind Pressure Humidity
    00:00 +2°C° 0 mm 3 mps 750 mmHg 91%
    01:00 +2°C° 0 mm 3 mps 750 mmHg 91%
    02:00 +2°C° 0 mm 3 mps 749 mmHg 91%
    03:00 +1°C° 0 mm 3 mps 749 mmHg 92%
    04:00 +1°C° 0 mm 3 mps 749 mmHg 92%
    05:00 +1°C° 0 mm 3 mps 748 mmHg 92%
    06:00 +2°C° 0 mm 3 mps 748 mmHg 90%
    07:00 +1°C° 0 mm 4 mps 748 mmHg 88%
    08:00 +3°C° 0 mm 4 mps 748 mmHg 85%
    09:00 +3°C° 0 mm 4 mps 748 mmHg 83%
    10:00 +4°C° 0 mm 4 mps 748 mmHg 82%
    11:00 +4°C° 0 mm 4 mps 748 mmHg 80%
    12:00 +4°C° 0 mm 4 mps 748 mmHg 79%
    13:00 +4°C° 0 mm 4 mps 747 mmHg 78%
    14:00 +4°C° 0 mm 4 mps 747 mmHg 77%
    15:00 +4°C° 0 mm 4 mps 747 mmHg 78%
    16:00 +4°C° 0 mm 3 mps 746 mmHg 78%
    17:00 +4°C° 0 mm 3 mps 746 mmHg 79%
    18:00 +4°C° 0 mm 3 mps 746 mmHg 81%
    19:00 +4°C° 0 mm 3 mps 746 mmHg 82%
    20:00 +3°C° 0 mm 3 mps 746 mmHg 84%
    21:00 +3°C° 0 mm 3 mps 745 mmHg 84%
    22:00 +3°C° 0 mm 3 mps 745 mmHg 84%
    23:00 +3°C° 0 mm 3 mps 745 mmHg 84%
    Show more